Location: St. Louis
(38.6270°N, 90.1994°W)
Time: 12:03:26
(UTC-06:00)

S-56A Canister/Altair - Pass Details

Date: 05 December 2021
Orbit: 634 x 2499 km, 38.9° (Epoch: 26 January)

Event Time Altitude Azimuth Distance (km) Brightness Sun altitude
Rises 19:45:02 0° 188° (S) 6,068 12.2 -35.5°
Reaches altitude 10° 19:51:29 10° 170° (S) 4,846 11.5 -36.8°
Enters shadow 19:54:25 14° 159° (SSE) 4,401 11.2 -37.4°
Maximum altitude 19:58:22 16° 139° (SE) 4,016 - -38.1°
Drops below altitude 10° 20:04:18 10° 107° (ESE) 4,097 - -39.3°
Sets 20:08:53 0° 87° (E) 4,726 - -40.2°
